Location: Saint-Palais-sur-Mer
(45.6429°N, 1.0859°W)
Time: 15:27:45
(UTC+01:00)

S-56A Canister/Altair - Pass Details

Date: 13 February 2026
Orbit: 633 x 2484 km, 38.9° (Epoch: 16 March)

Event Time Altitude Azimuth Distance (km) Brightness Sun altitude
Exits shadow 02:45:37 20° 97° (E) 3,342 10.8 -52.9°
Drops below altitude 10° 02:48:55 10° 91° (E) 4,329 11.5 -52.5°
Sets 02:53:08 0° 87° (E) 5,591 12.3 -52.1°
